EW5625 Weather Reports


time (UTC)temp
C
wind
direction
speed
KPH
gust
KPH
rain 1hr
cm
rain 24hr
cm
rain mn
cm
humidity
%
barometer
mb
20260504081547 0 127 0.0 0.0 0.00 0.00 0.00 92 1016.7
20260504050015 6 241 0.0 0.0 0.00 0.00 0.00 74 1016.7
20260504044507 6 243 0.0 0.0 0.00 0.00 0.00 73 1016.8
20260504043004 6 243 0.0 0.0 0.00 0.00 0.00 72 1016.8
20260504041601 6 251 0.0 0.0 0.00 0.00 0.00 71 1016.5
20260504040058 7 248 0.0 0.0 0.00 0.00 0.00 70 1016.4
20260504034600 7 243 0.0 0.0 0.00 0.00 0.00 69 1016.2
20260504033102 7 252 0.0 0.0 0.00 0.00 0.00 67 1016.1
20260504031600 7 240 0.0 0.0 0.00 0.00 0.00 66 1016.2
20260504030056 8 263 0.0 0.0 0.00 0.00 0.00 64 1016.0
20260504024556 8 261 0.0 0.0 0.00 0.00 0.00 62 1015.9
20260504023055 8 249 0.0 0.0 0.00 0.00 0.00 61 1015.9
20260504021556 9 262 0.0 0.0 0.00 0.00 0.00 59 1016.0
20260504020131 9 248 0.0 0.0 0.00 0.00 0.00 60 1016.0
20260504014604 9 248 0.0 0.0 0.00 0.00 0.00 58 1015.9
20260504013115 10 247 0.0 0.0 0.00 0.00 0.00 56 1015.7
20260504011552 10 257 0.0 0.0 0.00 0.00 0.00 55 1015.5
20260504010051 11 267 0.0 0.0 0.00 0.00 0.00 53 1015.5
20260504004620 11 257 0.0 0.0 0.00 0.00 0.00 52 1015.3
20260504003058 11 261 0.0 0.0 0.00 0.00 0.00 51 1015.2
20260504001618 12 255 0.0 0.0 0.00 0.00 0.00 49 1015.0
20260504000100 12 271 0.0 0.0 0.00 0.00 0.00 46 1014.8
20260503234549 13 271 0.0 0.0 0.00 0.00 0.00 45 1014.7
20260503233049 14 274 0.0 0.0 0.00 0.00 0.00 42 1014.7
20260503231548 15 251 0.0 0.0 0.00 0.00 0.00 41 1014.7
20260503230107 15 2 0.0 0.0 0.00 0.00 0.00 40 1014.6
20260503224547 15 269 0.0 0.0 0.00 0.00 0.00 40 1014.6
20260503223047 15 229 0.0 0.0 0.00 0.00 0.00 41 1014.5
20260503221546 15 265 0.0 0.0 0.00 0.00 0.00 39 1014.5
20260503220049 15 277 0.0 0.0 0.00 0.00 0.00 39 1014.6
20260503214545 15 181 0.0 0.0 0.00 0.00 0.00 39 1014.5
20260503213044 15 287 0.0 0.0 0.00 0.00 0.00 39 1014.4
20260503211541 15 293 0.0 0.0 0.00 0.00 0.00 40 1014.5
20260503210041 14 304 0.0 0.0 0.00 0.00 0.00 39 1014.5
20260503204540 15 24 0.0 0.0 0.00 0.00 0.00 39 1014.5
20260503203059 15 289 0.0 0.0 0.00 0.00 0.00 41 1014.6
20260503201536 14 284 0.0 0.0 0.00 0.00 0.00 40 1014.7
20260503200035 13 281 0.0 0.0 0.00 0.00 0.00 41 1014.8
20260503194540 13 318 0.0 0.0 0.00 0.00 0.00 42 1015.0
20260503193037 13 263 0.0 0.0 0.00 0.00 0.00 44 1015.2
20260503191531 13 348 0.0 0.0 0.00 0.00 0.00 43 1015.4
20260503190038 13 286 0.0 0.0 0.00 0.00 0.00 45 1015.4
20260503184527 12 302 0.0 0.0 0.00 0.00 0.00 45 1015.7
20260503183024 12 353 0.0 0.0 0.00 0.00 0.00 44 1015.8
20260503181524 12 288 0.0 0.0 0.00 0.00 0.00 46 1015.8
20260503180022 12 18 0.0 0.0 0.00 0.00 0.00 48 1015.9
20260503174520 12 342 0.0 0.0 0.00 0.00 0.00 46 1015.9
20260503173020 12 321 0.0 0.0 0.00 0.00 0.00 44 1016.2
20260503171517 11 317 0.0 0.0 0.00 0.00 0.00 49 1016.2